Time,TemperatureF,DewpointF,PressureIn,WindDirection,WindDirectionDegrees,WindSpeedMPH,WindSpeedGustMPH,Humidity,HourlyPrecipIn,Conditions,Clouds,dailyrainin,SoftwareType,DateUTC
2013-05-23 00:01:00,61.3,60.2,29.89,West,262,0.0,0.0,96,0.00,,,0.00,VWS V13.01,2013-05-23 05:01:00,
2013-05-23 00:06:00,61.3,60.2,29.89,West,262,0.0,0.0,96,0.00,,,0.00,VWS V13.01,2013-05-23 05:06:00,
2013-05-23 00:11:00,61.3,60.2,29.89,West,262,0.0,0.0,96,0.00,,,0.00,VWS V13.01,2013-05-23 05:11:00,
2013-05-23 00:16:00,61.3,60.2,29.92,West,262,0.0,0.0,96,0.00,,,0.00,VWS V13.01,2013-05-23 05:16:00,
2013-05-23 00:21:00,61.1,60.3,29.92,West,262,0.0,0.0,97,0.00,,,0.00,VWS V13.01,2013-05-23 05:21:00,
2013-05-23 00:26:00,61.1,60.0,29.92,West,262,0.0,0.0,96,0.00,,,0.00,VWS V13.01,2013-05-23 05:26:00,
2013-05-23 00:30:00,61.1,60.0,29.92,West,262,0.0,0.0,96,0.00,,,0.00,VWS V13.01,2013-05-23 05:30:00,
2013-05-23 00:35:00,61.1,59.7,29.92,West,262,0.0,0.0,95,0.00,,,0.00,VWS V13.01,2013-05-23 05:35:00,
2013-05-23 00:40:00,61.1,59.7,29.92,West,262,0.0,0.0,95,0.00,,,0.00,VWS V13.01,2013-05-23 05:40:00,
2013-05-23 00:45:00,61.0,59.5,29.89,West,278,0.0,0.0,95,0.00,,,0.00,VWS V13.01,2013-05-23 05:45:00,
2013-05-23 00:50:00,61.0,59.5,29.89,West,278,0.0,0.0,95,0.00,,,0.00,VWS V13.01,2013-05-23 05:50:00,
2013-05-23 00:55:00,60.8,59.3,29.89,West,278,0.0,0.0,95,0.00,,,0.00,VWS V13.01,2013-05-23 05:55:00,
2013-05-23 01:00:00,60.8,59.3,29.89,West,278,0.0,0.0,95,0.00,,,0.00,VWS V13.01,2013-05-23 06:00:00,
2013-05-23 01:05:00,60.6,59.5,29.89,West,278,0.0,0.0,96,0.00,,,0.00,VWS V13.01,2013-05-23 06:05:00,
2013-05-23 01:10:00,60.6,59.8,29.89,West,278,0.0,0.0,97,0.00,,,0.00,VWS V13.01,2013-05-23 06:10:00,
2013-05-23 01:15:00,60.4,60.1,29.89,West,278,0.0,0.0,99,0.00,,,0.00,VWS V13.01,2013-05-23 06:15:00,
2013-05-23 01:20:00,60.2,59.7,29.89,NW,316,0.0,0.0,98,0.00,,,0.00,VWS V13.01,2013-05-23 06:20:00,
2013-05-23 01:25:00,60.2,60.2,29.89,NW,316,0.0,0.0,100,0.00,,,0.00,VWS V13.01,2013-05-23 06:25:00,
2013-05-23 01:31:00,60.1,60.1,29.89,NNW,328,0.0,0.0,100,0.00,,,0.00,VWS V13.01,2013-05-23 06:31:00,
2013-05-23 01:36:00,59.9,59.9,29.89,NNW,328,0.0,0.0,100,0.00,,,0.00,VWS V13.01,2013-05-23 06:36:00,
2013-05-23 01:41:00,59.7,59.7,29.89,NNW,328,0.0,0.0,100,0.00,,,0.00,VWS V13.01,2013-05-23 06:41:00,
2013-05-23 01:46:00,59.7,59.7,29.89,NNW,328,0.0,0.0,100,0.00,,,0.00,VWS V13.01,2013-05-23 06:46:00,
2013-05-23 01:51:00,59.5,59.5,29.89,NNW,328,0.0,0.0,100,0.00,,,0.00,VWS V13.01,2013-05-23 06:51:00,
2013-05-23 01:55:00,59.5,59.5,29.89,NNW,328,0.0,0.0,100,0.00,,,0.00,VWS V13.01,2013-05-23 06:55:00,
2013-05-23 02:00:00,59.3,59.3,29.89,NNW,328,0.0,0.0,100,0.00,,,0.00,VWS V13.01,2013-05-23 07:00:00,
2013-05-23 02:05:00,59.2,59.2,29.89,NNW,328,0.0,0.0,100,0.00,,,0.00,VWS V13.01,2013-05-23 07:05:00,
2013-05-23 02:10:00,59.2,59.2,29.89,NNW,328,0.0,0.0,100,0.00,,,0.00,VWS V13.01,2013-05-23 07:10:00,
2013-05-23 02:15:00,59.0,59.0,29.89,NNW,328,0.0,0.0,100,0.00,,,0.00,VWS V13.01,2013-05-23 07:15:00,
2013-05-23 02:20:00,58.8,58.8,29.89,NNW,328,0.0,0.0,100,0.00,,,0.00,VWS V13.01,2013-05-23 07:20:00,
2013-05-23 02:25:00,58.6,58.6,29.89,NNW,328,0.0,0.0,100,0.00,,,0.00,VWS V13.01,2013-05-23 07:25:00,
2013-05-23 02:30:00,58.6,58.6,29.89,NNW,328,0.0,0.0,100,0.00,,,0.00,VWS V13.01,2013-05-23 07:30:00,
2013-05-23 02:35:00,58.4,58.4,29.89,NNW,328,0.0,0.0,100,0.00,,,0.00,VWS V13.01,2013-05-23 07:35:00,
2013-05-23 02:40:00,58.3,58.3,29.89,NNW,328,0.0,0.0,100,0.00,,,0.00,VWS V13.01,2013-05-23 07:40:00,
2013-05-23 02:45:00,58.1,58.1,29.89,NNW,328,0.0,0.0,100,0.00,,,0.00,VWS V13.01,2013-05-23 07:45:00,
2013-05-23 02:56:00,58.1,58.1,29.89,NNW,328,0.0,0.0,100,0.00,,,0.00,VWS V13.01,2013-05-23 07:56:00,
2013-05-23 03:01:00,57.9,57.9,29.92,NNW,328,0.0,0.0,100,0.00,,,0.00,VWS V13.01,2013-05-23 08:01:00,
2013-05-23 03:06:00,57.9,57.9,29.92,NNW,328,0.0,0.0,100,0.00,,,0.00,VWS V13.01,2013-05-23 08:06:00,
2013-05-23 03:11:00,57.7,57.7,29.92,NNW,333,0.0,0.0,100,0.00,,,0.00,VWS V13.01,2013-05-23 08:11:00,
2013-05-23 03:16:00,57.7,57.7,29.92,NNE,22,0.0,0.0,100,0.00,,,0.00,VWS V13.01,2013-05-23 08:16:00,
2013-05-23 03:21:00,57.5,57.5,29.92,NNE,22,0.0,0.0,100,0.00,,,0.00,VWS V13.01,2013-05-23 08:21:00,
2013-05-23 03:26:00,57.4,57.4,29.92,NNE,22,0.0,0.0,100,0.00,,,0.00,VWS V13.01,2013-05-23 08:26:00,
2013-05-23 03:31:00,57.4,57.4,29.92,NNE,22,0.0,0.0,100,0.00,,,0.00,VWS V13.01,2013-05-23 08:31:00,
2013-05-23 03:36:00,57.4,57.4,29.92,NNE,22,0.0,0.0,100,0.00,,,0.00,VWS V13.01,2013-05-23 08:36:00,
2013-05-23 03:41:00,57.2,57.2,29.92,NNE,22,0.0,0.0,100,0.00,,,0.00,VWS V13.01,2013-05-23 08:41:00,
2013-05-23 03:46:00,57.2,57.2,29.92,NNE,22,0.0,0.0,100,0.00,,,0.00,VWS V13.01,2013-05-23 08:46:00,
2013-05-23 03:51:00,57.2,57.2,29.92,North,7,0.0,0.0,100,0.00,,,0.00,VWS V13.01,2013-05-23 08:51:00,
2013-05-23 03:56:00,57.0,57.0,29.92,North,7,0.0,0.0,100,0.00,,,0.00,VWS V13.01,2013-05-23 08:56:00,
2013-05-23 04:01:00,57.2,57.2,29.92,North,7,0.0,0.0,100,0.00,,,0.00,VWS V13.01,2013-05-23 09:01:00,
2013-05-23 04:06:00,57.0,57.0,29.92,North,7,0.0,0.0,100,0.00,,,0.00,VWS V13.01,2013-05-23 09:06:00,
2013-05-23 04:11:00,57.0,57.0,29.92,North,7,0.0,0.0,100,0.00,,,0.00,VWS V13.01,2013-05-23 09:11:00,
2013-05-23 04:16:00,56.8,56.8,29.92,North,7,0.0,0.0,100,0.00,,,0.00,VWS V13.01,2013-05-23 09:16:00,
2013-05-23 04:21:00,56.6,56.6,29.92,North,7,0.0,0.0,100,0.00,,,0.00,VWS V13.01,2013-05-23 09:21:00,
2013-05-23 04:26:00,56.5,56.5,29.92,North,7,0.0,0.0,100,0.00,,,0.00,VWS V13.01,2013-05-23 09:26:00,
2013-05-23 04:31:00,56.5,56.5,29.92,North,7,0.0,0.0,100,0.00,,,0.00,VWS V13.01,2013-05-23 09:31:00,
2013-05-23 04:36:00,56.5,56.5,29.92,North,7,0.0,0.0,100,0.00,,,0.00,VWS V13.01,2013-05-23 09:36:00,
2013-05-23 04:41:00,56.3,56.3,29.92,North,7,0.0,0.0,100,0.00,,,0.00,VWS V13.01,2013-05-23 09:41:00,
2013-05-23 04:46:00,56.3,56.3,29.92,North,7,0.0,0.0,100,0.00,,,0.00,VWS V13.01,2013-05-23 09:46:00,
2013-05-23 04:51:00,56.1,56.1,29.92,North,7,0.0,0.0,100,0.00,,,0.00,VWS V13.01,2013-05-23 09:51:00,
2013-05-23 04:56:00,56.1,56.1,29.92,North,7,0.0,0.0,100,0.00,,,0.00,VWS V13.01,2013-05-23 09:56:00,
2013-05-23 05:01:00,56.1,56.1,29.92,North,7,0.0,0.0,100,0.00,,,0.00,VWS V13.01,2013-05-23 10:01:00,
2013-05-23 05:06:00,56.1,56.1,29.92,North,7,0.0,0.0,100,0.00,,,0.00,VWS V13.01,2013-05-23 10:06:00,
2013-05-23 05:11:00,56.1,56.1,29.92,North,7,0.0,0.0,100,0.00,,,0.00,VWS V13.01,2013-05-23 10:11:00,
2013-05-23 05:16:00,56.1,56.1,29.92,North,7,0.0,0.0,100,0.00,,,0.00,VWS V13.01,2013-05-23 10:16:00,
2013-05-23 05:21:00,55.9,55.9,29.92,North,7,0.0,0.0,100,0.00,,,0.00,VWS V13.01,2013-05-23 10:21:00,
2013-05-23 05:26:00,55.9,55.9,29.92,North,7,0.0,0.0,100,0.00,,,0.00,VWS V13.01,2013-05-23 10:26:00,
2013-05-23 05:31:00,55.9,55.9,29.92,North,7,0.0,0.0,100,0.00,,,0.00,VWS V13.01,2013-05-23 10:31:00,
2013-05-23 05:36:00,55.9,55.9,29.92,North,7,0.0,0.0,100,0.00,,,0.00,VWS V13.01,2013-05-23 10:36:00,
2013-05-23 05:41:00,55.7,55.7,29.92,North,7,0.0,0.0,100,0.00,,,0.00,VWS V13.01,2013-05-23 10:41:00,
2013-05-23 05:46:00,55.7,55.7,29.92,North,7,0.0,0.0,100,0.00,,,0.00,VWS V13.01,2013-05-23 10:46:00,
2013-05-23 05:51:00,55.6,55.6,29.92,North,7,0.0,0.0,100,0.00,,,0.00,VWS V13.01,2013-05-23 10:51:00,
2013-05-23 05:56:00,55.6,55.6,29.92,North,7,0.0,0.0,100,0.00,,,0.00,VWS V13.01,2013-05-23 10:56:00,
2013-05-23 06:01:00,55.4,55.4,29.95,North,7,0.0,0.0,100,0.00,,,0.00,VWS V13.01,2013-05-23 11:01:00,
2013-05-23 06:06:00,55.4,55.4,29.95,North,7,0.0,0.0,100,0.00,,,0.00,VWS V13.01,2013-05-23 11:06:00,
2013-05-23 06:11:00,55.2,55.2,29.95,North,7,0.0,0.0,100,0.00,,,0.00,VWS V13.01,2013-05-23 11:11:00,
2013-05-23 06:16:00,55.2,55.2,29.95,North,7,0.0,0.0,100,0.00,,,0.00,VWS V13.01,2013-05-23 11:16:00,
2013-05-23 06:21:00,55.2,55.2,29.95,North,355,0.0,0.0,100,0.00,,,0.00,VWS V13.01,2013-05-23 11:21:00,
2013-05-23 06:26:00,55.2,55.2,29.95,North,354,0.0,0.0,100,0.00,,,0.00,VWS V13.01,2013-05-23 11:26:00,
2013-05-23 06:31:00,55.2,55.2,29.98,North,355,0.0,0.0,100,0.00,,,0.00,VWS V13.01,2013-05-23 11:31:00,
2013-05-23 06:36:00,55.2,55.2,29.98,North,355,0.0,0.0,100,0.00,,,0.00,VWS V13.01,2013-05-23 11:36:00,
2013-05-23 06:41:00,55.2,55.2,29.98,North,355,0.0,0.0,100,0.00,,,0.00,VWS V13.01,2013-05-23 11:41:00,
2013-05-23 06:46:00,55.2,55.2,29.98,North,355,0.0,0.0,100,0.00,,,0.00,VWS V13.01,2013-05-23 11:46:00,
2013-05-23 06:51:00,55.4,55.4,29.98,North,354,0.0,0.0,100,0.00,,,0.00,VWS V13.01,2013-05-23 11:51:00,
2013-05-23 06:56:00,55.6,55.6,29.98,North,355,0.0,0.0,100,0.00,,,0.00,VWS V13.01,2013-05-23 11:56:00,
2013-05-23 07:01:00,55.9,55.9,29.98,North,355,0.0,0.0,100,0.00,,,0.00,VWS V13.01,2013-05-23 12:01:00,
2013-05-23 07:06:00,56.5,56.5,29.98,North,355,0.0,0.0,100,0.00,,,0.00,VWS V13.01,2013-05-23 12:06:00,
2013-05-23 07:11:00,56.8,56.8,29.98,North,354,0.0,0.0,100,0.00,,,0.00,VWS V13.01,2013-05-23 12:11:00,
2013-05-23 07:16:00,57.0,57.0,29.98,North,354,0.0,0.0,100,0.00,,,0.00,VWS V13.01,2013-05-23 12:16:00,
2013-05-23 07:21:00,57.2,57.2,29.98,North,355,0.0,0.0,100,0.00,,,0.00,VWS V13.01,2013-05-23 12:21:00,
2013-05-23 07:26:00,57.7,57.7,29.98,North,355,0.0,0.0,100,0.00,,,0.00,VWS V13.01,2013-05-23 12:26:00,
2013-05-23 07:31:00,58.3,58.3,29.98,North,354,0.0,0.0,100,0.00,,,0.00,VWS V13.01,2013-05-23 12:31:00,
2013-05-23 07:36:00,58.6,58.6,29.98,North,354,0.0,0.0,100,0.00,,,0.00,VWS V13.01,2013-05-23 12:36:00,
2013-05-23 07:41:00,59.0,59.0,29.98,North,354,0.0,0.0,100,0.00,,,0.00,VWS V13.01,2013-05-23 12:41:00,
2013-05-23 07:46:00,59.7,59.7,29.98,North,354,0.0,0.0,100,0.00,,,0.00,VWS V13.01,2013-05-23 12:46:00,
2013-05-23 07:51:00,60.2,60.2,29.98,North,355,0.0,0.0,100,0.00,,,0.00,VWS V13.01,2013-05-23 12:51:00,
2013-05-23 07:56:00,60.6,60.6,29.98,SSE,159,0.0,0.0,100,0.00,,,0.00,VWS V13.01,2013-05-23 12:56:00,
2013-05-23 08:01:00,61.0,61.0,29.98,SSE,159,0.0,0.0,100,0.00,,,0.00,VWS V13.01,2013-05-23 13:01:00,
2013-05-23 08:06:00,61.5,61.5,29.98,SSE,164,0.0,0.0,100,0.00,,,0.00,VWS V13.01,2013-05-23 13:06:00,
2013-05-23 08:11:00,62.0,62.0,29.98,WSW,252,2.2,2.2,100,0.00,,,0.00,VWS V13.01,2013-05-23 13:11:00,
2013-05-23 08:16:00,62.2,62.2,29.98,West,262,0.0,0.0,100,0.00,,,0.00,VWS V13.01,2013-05-23 13:16:00,
2013-05-23 08:21:00,62.8,62.8,29.98,South,177,2.2,2.2,100,0.00,,,0.00,VWS V13.01,2013-05-23 13:21:00,
2013-05-23 08:26:00,63.1,63.1,29.98,WSW,257,0.0,3.1,100,0.00,,,0.00,VWS V13.01,2013-05-23 13:26:00,
2013-05-23 08:31:00,63.7,63.7,30.01,WSW,247,0.0,0.0,100,0.00,,,0.00,VWS V13.01,2013-05-23 13:31:00,
2013-05-23 08:36:00,63.5,63.5,30.01,WSW,247,0.0,0.0,100,0.00,,,0.00,VWS V13.01,2013-05-23 13:36:00,
2013-05-23 08:41:00,64.4,64.4,30.01,WSW,247,0.0,0.0,100,0.00,,,0.00,VWS V13.01,2013-05-23 13:41:00,
2013-05-23 08:46:00,64.7,63.9,30.01,SW,220,0.0,0.0,97,0.00,,,0.00,VWS V13.01,2013-05-23 13:46:00,
2013-05-23 08:51:00,65.1,62.1,30.01,WSW,252,0.0,0.0,90,0.00,,,0.00,VWS V13.01,2013-05-23 13:51:00,
2013-05-23 08:56:00,65.3,61.0,30.01,WSW,252,0.0,0.0,86,0.00,,,0.00,VWS V13.01,2013-05-23 13:56:00,
2013-05-23 09:01:00,65.5,60.8,30.01,SSW,208,0.0,0.0,85,0.00,,,0.00,VWS V13.01,2013-05-23 14:01:00,
2013-05-23 09:06:00,65.5,59.5,30.01,SW,217,0.0,0.0,81,0.00,,,0.00,VWS V13.01,2013-05-23 14:06:00,
2013-05-23 09:11:00,65.6,59.3,30.01,WSW,246,2.2,3.1,80,0.00,,,0.00,VWS V13.01,2013-05-23 14:11:00,
2013-05-23 09:16:00,65.8,59.5,30.01,WSW,238,2.2,2.7,80,0.00,,,0.00,VWS V13.01,2013-05-23 14:16:00,
2013-05-23 09:21:00,66.0,59.0,30.01,South,170,0.0,3.1,78,0.00,,,0.00,VWS V13.01,2013-05-23 14:21:00,
2013-05-23 09:26:00,66.4,59.7,30.01,South,185,0.0,0.0,79,0.00,,,0.00,VWS V13.01,2013-05-23 14:26:00,
2013-05-23 09:31:00,66.5,59.5,30.04,SSW,208,2.2,3.1,78,0.00,,,0.00,VWS V13.01,2013-05-23 14:31:00,
2013-05-23 09:36:00,66.7,59.3,30.04,SSW,193,3.1,3.6,77,0.00,,,0.00,VWS V13.01,2013-05-23 14:36:00,
2013-05-23 09:41:00,66.7,58.9,30.04,South,186,3.1,3.1,76,0.00,,,0.00,VWS V13.01,2013-05-23 14:41:00,
2013-05-23 09:46:00,66.9,59.5,30.01,SW,233,3.1,3.1,77,0.00,,,0.00,VWS V13.01,2013-05-23 14:46:00,
2013-05-23 09:50:00,66.9,58.3,30.01,South,180,2.7,4.0,74,0.00,,,0.00,VWS V13.01,2013-05-23 14:50:00,
2013-05-23 09:55:00,67.1,58.5,30.01,SE,124,3.6,3.6,74,0.00,,,0.00,VWS V13.01,2013-05-23 14:55:00,
2013-05-23 10:00:00,67.3,57.9,30.04,NE,52,0.0,0.0,72,0.00,,,0.00,VWS V13.01,2013-05-23 15:00:00,
2013-05-23 10:05:00,68.0,58.2,30.04,NE,52,0.0,0.0,71,0.00,,,0.00,VWS V13.01,2013-05-23 15:05:00,
2013-05-23 10:10:00,68.2,58.8,30.04,SE,143,0.0,0.0,72,0.00,,,0.00,VWS V13.01,2013-05-23 15:10:00,
2013-05-23 10:15:00,68.0,58.6,30.04,SE,143,0.0,0.0,72,0.00,,,0.00,VWS V13.01,2013-05-23 15:15:00,
2013-05-23 10:20:00,68.2,58.4,30.04,NE,49,0.0,0.0,71,0.00,,,0.00,VWS V13.01,2013-05-23 15:20:00,
2013-05-23 10:25:00,68.5,58.8,30.04,SSE,158,0.0,0.0,71,0.00,,,0.00,VWS V13.01,2013-05-23 15:25:00,
2013-05-23 10:30:00,68.9,59.1,30.01,SSE,158,0.0,0.0,71,0.00,,,0.00,VWS V13.01,2013-05-23 15:30:00,
2013-05-23 10:35:00,68.9,59.5,30.01,WSW,249,3.1,3.1,72,0.00,,,0.00,VWS V13.01,2013-05-23 15:35:00,
2013-05-23 10:40:00,68.7,59.7,30.01,SSW,192,0.0,2.7,73,0.00,,,0.00,VWS V13.01,2013-05-23 15:40:00,
2013-05-23 10:45:00,68.5,59.5,30.04,WSW,254,0.0,0.0,73,0.00,,,0.00,VWS V13.01,2013-05-23 15:45:00,
2013-05-23 10:50:00,68.5,58.0,30.04,West,275,0.0,2.2,69,0.00,,,0.00,VWS V13.01,2013-05-23 15:50:00,
2013-05-23 10:55:00,68.7,58.5,30.04,NNW,331,0.0,0.0,70,0.00,,,0.00,VWS V13.01,2013-05-23 15:55:00,
2013-05-23 11:00:00,69.1,59.3,30.04,WSW,247,0.0,0.0,71,0.00,,,0.00,VWS V13.01,2013-05-23 16:00:00,
2013-05-23 11:05:00,69.2,59.8,30.04,SSW,197,0.0,0.0,72,0.00,,,0.00,VWS V13.01,2013-05-23 16:05:00,
2013-05-23 11:10:00,69.4,59.6,30.04,South,185,3.1,3.1,71,0.00,,,0.00,VWS V13.01,2013-05-23 16:10:00,
2013-05-23 11:15:00,69.4,59.6,30.04,SSW,198,3.1,3.1,71,0.00,,,0.00,VWS V13.01,2013-05-23 16:15:00,
2013-05-23 11:20:00,69.2,59.0,30.04,South,185,0.0,0.0,70,0.00,,,0.00,VWS V13.01,2013-05-23 16:20:00,
2013-05-23 11:25:00,69.2,59.5,30.04,West,259,0.0,0.0,71,0.00,,,0.00,VWS V13.01,2013-05-23 16:25:00,
2013-05-23 11:30:00,69.4,59.6,30.04,West,267,0.0,0.0,71,0.00,,,0.00,VWS V13.01,2013-05-23 16:30:00,
2013-05-23 11:35:00,69.6,59.4,30.04,WSW,244,2.7,2.7,70,0.00,,,0.00,VWS V13.01,2013-05-23 16:35:00,
2013-05-23 11:40:00,69.6,59.0,30.04,West,278,0.0,0.0,69,0.00,,,0.00,VWS V13.01,2013-05-23 16:40:00,
2013-05-23 11:45:00,69.8,58.8,30.04,WSW,250,0.0,0.0,68,0.00,,,0.00,VWS V13.01,2013-05-23 16:45:00,
2013-05-23 11:50:00,70.0,59.7,30.04,SW,228,2.2,3.1,70,0.00,,,0.00,VWS V13.01,2013-05-23 16:50:00,
2013-05-23 11:55:00,70.0,58.9,30.04,WSW,247,2.2,2.7,68,0.00,,,0.00,VWS V13.01,2013-05-23 16:55:00,
2013-05-23 12:00:00,70.3,58.9,30.04,WSW,250,0.0,0.0,67,0.00,,,0.00,VWS V13.01,2013-05-23 17:00:00,
2013-05-23 12:05:00,70.7,59.6,30.04,SW,226,4.0,4.0,68,0.00,,,0.00,VWS V13.01,2013-05-23 17:05:00,
2013-05-23 12:10:00,70.7,58.8,30.04,WSW,246,2.2,2.2,66,0.00,,,0.00,VWS V13.01,2013-05-23 17:10:00,
2013-05-23 12:15:00,70.7,58.8,30.04,West,262,0.0,0.0,66,0.00,,,0.00,VWS V13.01,2013-05-23 17:15:00,
2013-05-23 12:20:00,70.9,58.5,30.04,West,259,3.6,3.6,65,0.00,,,0.00,VWS V13.01,2013-05-23 17:20:00,
2013-05-23 12:25:00,71.0,58.7,30.04,WSW,240,3.1,3.1,65,0.00,,,0.00,VWS V13.01,2013-05-23 17:25:00,
2013-05-23 12:30:00,71.0,58.7,30.04,SSE,166,0.0,3.1,65,0.00,,,0.00,VWS V13.01,2013-05-23 17:30:00,
2013-05-23 12:35:00,71.4,59.0,30.04,WSW,246,3.1,3.1,65,0.00,,,0.00,VWS V13.01,2013-05-23 17:35:00,
2013-05-23 12:40:00,71.6,58.8,30.04,WSW,241,2.7,3.1,64,0.00,,,0.00,VWS V13.01,2013-05-23 17:40:00,
2013-05-23 12:45:00,71.8,59.4,30.07,SE,131,3.1,3.1,65,0.00,,,0.00,VWS V13.01,2013-05-23 17:45:00,
2013-05-23 12:50:00,71.9,60.0,30.07,South,173,4.0,4.0,66,0.00,,,0.00,VWS V13.01,2013-05-23 17:50:00,
2013-05-23 12:55:00,72.1,60.2,30.07,WSW,241,3.1,3.1,66,0.00,,,0.00,VWS V13.01,2013-05-23 17:55:00,
2013-05-23 13:00:00,72.5,60.5,30.07,SSE,166,4.0,4.0,66,0.00,,,0.00,VWS V13.01,2013-05-23 18:00:00,
2013-05-23 13:05:00,72.8,60.4,30.07,South,172,4.5,4.5,65,0.00,,,0.00,VWS V13.01,2013-05-23 18:05:00,
2013-05-23 13:10:00,73.2,60.7,30.07,WSW,255,4.0,4.0,65,0.00,,,0.00,VWS V13.01,2013-05-23 18:10:00,
2013-05-23 13:15:00,73.4,60.9,30.04,SW,229,0.0,2.2,65,0.00,,,0.00,VWS V13.01,2013-05-23 18:15:00,
2013-05-23 13:20:00,73.7,60.4,30.04,South,175,2.7,4.0,63,0.00,,,0.00,VWS V13.01,2013-05-23 18:20:00,
2013-05-23 13:25:00,73.9,59.6,30.04,West,263,0.0,0.0,61,0.00,,,0.00,VWS V13.01,2013-05-23 18:25:00,
2013-05-23 13:30:00,74.1,59.8,30.04,South,177,3.1,4.5,61,0.00,,,0.00,VWS V13.01,2013-05-23 18:30:00,
2013-05-23 13:35:00,74.1,60.3,30.04,West,259,3.6,4.9,62,0.00,,,0.00,VWS V13.01,2013-05-23 18:35:00,
2013-05-23 13:40:00,74.1,60.3,30.04,SSW,197,0.0,0.0,62,0.00,,,0.00,VWS V13.01,2013-05-23 18:40:00,
2013-05-23 13:45:00,74.1,60.3,30.04,SSE,147,4.0,4.0,62,0.00,,,0.00,VWS V13.01,2013-05-23 18:45:00,
2013-05-23 13:50:00,74.5,60.6,30.04,SSW,211,3.1,3.1,62,0.00,,,0.00,VWS V13.01,2013-05-23 18:50:00,
2013-05-23 13:55:00,75.0,60.7,30.04,SSE,163,2.7,2.7,61,0.00,,,0.00,VWS V13.01,2013-05-23 18:55:00,
2013-05-23 14:00:00,75.0,60.7,30.04,SSW,198,3.6,3.6,61,0.00,,,0.00,VWS V13.01,2013-05-23 19:00:00,
2013-05-23 14:05:00,75.0,60.7,30.04,SSE,154,3.1,3.1,61,0.00,,,0.00,VWS V13.01,2013-05-23 19:05:00,
2013-05-23 14:10:00,75.7,61.3,30.04,SSE,159,4.0,4.0,61,0.00,,,0.00,VWS V13.01,2013-05-23 19:10:00,
2013-05-23 14:15:00,75.7,60.9,30.04,ESE,106,2.2,3.1,60,0.00,,,0.00,VWS V13.01,2013-05-23 19:15:00,
2013-05-23 14:20:00,75.9,61.0,30.04,SE,143,2.7,4.0,60,0.00,,,0.00,VWS V13.01,2013-05-23 19:20:00,
2013-05-23 14:25:00,75.9,60.6,30.04,South,178,4.0,5.4,59,0.00,,,0.00,VWS V13.01,2013-05-23 19:25:00,
2013-05-23 14:30:00,75.5,60.2,30.04,WSW,246,3.1,3.1,59,0.00,,,0.00,VWS V13.01,2013-05-23 19:30:00,
2013-05-23 14:35:00,75.9,61.5,30.04,South,183,0.0,0.0,61,0.00,,,0.00,VWS V13.01,2013-05-23 19:35:00,
2013-05-23 14:40:00,76.6,61.7,30.04,ESE,123,3.1,3.6,60,0.00,,,0.00,VWS V13.01,2013-05-23 19:40:00,
2013-05-23 14:45:00,76.6,61.2,30.04,East,79,3.1,3.1,59,0.00,,,0.00,VWS V13.01,2013-05-23 19:45:00,
2013-05-23 14:50:00,77.0,61.6,30.04,SSE,158,2.7,2.7,59,0.00,,,0.00,VWS V13.01,2013-05-23 19:50:00,
2013-05-23 14:55:00,77.0,60.6,30.04,SE,131,2.2,3.1,57,0.00,,,0.00,VWS V13.01,2013-05-23 19:55:00,
2013-05-23 15:00:00,77.2,62.2,30.04,East,92,3.6,3.6,60,0.00,,,0.00,VWS V13.01,2013-05-23 20:00:00,
2013-05-23 15:05:00,77.3,62.4,30.04,SE,133,3.1,3.6,60,0.00,,,0.00,VWS V13.01,2013-05-23 20:05:00,
2013-05-23 15:10:00,77.0,61.6,30.04,ESE,120,3.6,3.6,59,0.00,,,0.00,VWS V13.01,2013-05-23 20:10:00,
2013-05-23 15:15:00,76.4,60.6,30.04,SSW,196,5.4,5.4,58,0.00,,,0.00,VWS V13.01,2013-05-23 20:15:00,
2013-05-23 15:20:00,76.1,61.2,30.04,South,169,2.7,2.7,60,0.00,,,0.00,VWS V13.01,2013-05-23 20:20:00,
2013-05-23 15:25:00,76.3,61.8,30.04,SE,143,3.6,3.6,61,0.00,,,0.00,VWS V13.01,2013-05-23 20:25:00,
2013-05-23 15:29:00,76.1,62.1,30.01,South,170,2.2,3.1,62,0.00,,,0.00,VWS V13.01,2013-05-23 20:29:00,
2013-05-23 15:34:00,75.9,61.5,30.01,SSE,167,2.7,4.0,61,0.00,,,0.00,VWS V13.01,2013-05-23 20:34:00,
2013-05-23 15:39:00,75.9,62.4,30.01,ESE,113,3.6,3.6,63,0.00,,,0.00,VWS V13.01,2013-05-23 20:39:00,
2013-05-23 15:44:00,75.9,62.4,30.01,ESE,117,2.2,2.7,63,0.00,,,0.00,VWS V13.01,2013-05-23 20:44:00,
2013-05-23 15:49:00,76.1,62.1,30.01,ESE,118,0.0,3.1,62,0.00,,,0.00,VWS V13.01,2013-05-23 20:49:00,
2013-05-23 15:54:00,76.3,62.3,30.01,South,172,2.7,3.1,62,0.00,,,0.00,VWS V13.01,2013-05-23 20:54:00,
2013-05-23 15:59:00,75.7,61.8,30.01,South,189,4.0,4.9,62,0.00,,,0.00,VWS V13.01,2013-05-23 20:59:00,
2013-05-23 16:04:00,75.5,62.1,30.01,SSW,196,5.4,5.4,63,0.00,,,0.00,VWS V13.01,2013-05-23 21:04:00,
2013-05-23 16:09:00,75.4,62.8,30.01,South,176,2.2,3.6,65,0.00,,,0.00,VWS V13.01,2013-05-23 21:09:00,
2013-05-23 16:14:00,75.4,62.8,30.01,SSE,163,4.9,4.9,65,0.00,,,0.00,VWS V13.01,2013-05-23 21:14:00,
2013-05-23 16:19:00,75.2,62.2,30.01,SE,133,2.7,3.1,64,0.00,,,0.00,VWS V13.01,2013-05-23 21:19:00,
2013-05-23 16:24:00,75.2,61.7,30.01,South,179,2.7,3.6,63,0.00,,,0.00,VWS V13.01,2013-05-23 21:24:00,
2013-05-23 16:29:00,75.2,61.7,30.01,SSW,192,3.1,3.1,63,0.00,,,0.00,VWS V13.01,2013-05-23 21:29:00,
2013-05-23 16:34:00,75.2,62.2,30.01,SSE,168,4.0,4.0,64,0.00,,,0.00,VWS V13.01,2013-05-23 21:34:00,
2013-05-23 16:39:00,75.2,61.7,30.01,SSW,200,3.1,3.1,63,0.00,,,0.00,VWS V13.01,2013-05-23 21:39:00,
2013-05-23 16:44:00,75.4,62.3,30.01,SW,219,2.7,2.7,64,0.00,,,0.00,VWS V13.01,2013-05-23 21:44:00,
2013-05-23 16:49:00,75.4,62.3,30.01,SSW,211,2.7,2.7,64,0.00,,,0.00,VWS V13.01,2013-05-23 21:49:00,
2013-05-23 16:54:00,75.4,62.3,30.01,South,189,3.1,3.1,64,0.00,,,0.00,VWS V13.01,2013-05-23 21:54:00,
2013-05-23 16:59:00,75.2,61.7,30.01,South,171,2.7,4.0,63,0.00,,,0.00,VWS V13.01,2013-05-23 21:59:00,
2013-05-23 17:04:00,75.2,62.2,30.01,SSE,167,2.2,3.6,64,0.00,,,0.00,VWS V13.01,2013-05-23 22:04:00,
2013-05-23 17:09:00,75.2,62.2,30.01,SSE,160,0.0,2.7,64,0.00,,,0.00,VWS V13.01,2013-05-23 22:09:00,
2013-05-23 17:14:00,75.5,62.5,30.01,WSW,239,0.0,0.0,64,0.00,,,0.00,VWS V13.01,2013-05-23 22:14:00,
2013-05-23 17:19:00,75.4,61.9,30.01,South,185,0.0,3.1,63,0.00,,,0.00,VWS V13.01,2013-05-23 22:19:00,
2013-05-23 17:24:00,75.4,61.9,30.01,SSE,155,0.0,0.0,63,0.00,,,0.00,VWS V13.01,2013-05-23 22:24:00,
2013-05-23 17:29:00,75.5,62.5,30.01,South,174,2.7,3.1,64,0.00,,,0.00,VWS V13.01,2013-05-23 22:29:00,
2013-05-23 17:34:00,75.4,61.9,30.01,South,175,0.0,2.2,63,0.00,,,0.00,VWS V13.01,2013-05-23 22:34:00,
2013-05-23 17:39:00,75.2,61.7,30.01,SE,140,0.0,0.0,63,0.00,,,0.00,VWS V13.01,2013-05-23 22:39:00,
2013-05-23 17:44:00,75.2,62.2,29.98,SE,140,0.0,0.0,64,0.00,,,0.00,VWS V13.01,2013-05-23 22:44:00,
2013-05-23 17:49:00,75.4,62.3,29.98,SE,140,0.0,0.0,64,0.00,,,0.00,VWS V13.01,2013-05-23 22:49:00,
2013-05-23 17:54:00,75.4,62.8,29.98,SE,140,0.0,0.0,65,0.00,,,0.00,VWS V13.01,2013-05-23 22:54:00,
2013-05-23 17:59:00,75.4,62.8,29.98,SE,140,0.0,0.0,65,0.00,,,0.00,VWS V13.01,2013-05-23 22:59:00,
2013-05-23 18:04:00,75.0,62.0,29.98,South,179,2.7,2.7,64,0.00,,,0.00,VWS V13.01,2013-05-23 23:04:00,
2013-05-23 18:09:00,74.8,62.3,29.98,South,179,0.0,0.0,65,0.00,,,0.00,VWS V13.01,2013-05-23 23:09:00,
2013-05-23 18:14:00,74.8,63.1,29.98,SW,214,0.0,0.0,67,0.00,,,0.00,VWS V13.01,2013-05-23 23:14:00,
2013-05-23 18:19:00,74.8,63.1,29.98,SW,214,0.0,0.0,67,0.00,,,0.00,VWS V13.01,2013-05-23 23:19:00,
2013-05-23 18:24:00,74.8,62.7,29.98,SW,215,0.0,0.0,66,0.00,,,0.00,VWS V13.01,2013-05-23 23:24:00,
2013-05-23 18:29:00,75.0,62.9,29.98,SW,215,0.0,0.0,66,0.00,,,0.00,VWS V13.01,2013-05-23 23:29:00,
2013-05-23 18:34:00,75.0,62.5,29.98,SW,215,0.0,0.0,65,0.00,,,0.00,VWS V13.01,2013-05-23 23:34:00,
2013-05-23 18:39:00,74.8,62.3,29.98,WSW,249,0.0,0.0,65,0.00,,,0.00,VWS V13.01,2013-05-23 23:39:00,
2013-05-23 18:44:00,74.5,62.8,30.01,WSW,252,2.7,2.7,67,0.00,,,0.00,VWS V13.01,2013-05-23 23:44:00,
2013-05-23 18:49:00,74.1,62.5,30.01,West,263,2.7,3.1,67,0.00,,,0.00,VWS V13.01,2013-05-23 23:49:00,
2013-05-23 18:54:00,73.9,62.7,30.01,West,277,2.7,2.7,68,0.00,,,0.00,VWS V13.01,2013-05-23 23:54:00,
2013-05-23 18:59:00,73.7,63.0,30.01,WSW,248,0.0,0.0,69,0.00,,,0.00,VWS V13.01,2013-05-23 23:59:00,
2013-05-23 19:04:00,73.9,63.1,30.01,WSW,250,0.0,0.0,69,0.00,,,0.00,VWS V13.01,2013-05-24 00:04:00,
2013-05-23 19:09:00,73.7,63.4,30.01,WSW,250,0.0,0.0,70,0.00,,,0.00,VWS V13.01,2013-05-24 00:09:00,
2013-05-23 19:14:00,73.6,64.8,30.01,SSW,210,0.0,0.0,74,0.00,,,0.00,VWS V13.01,2013-05-24 00:14:00,
2013-05-23 19:19:00,73.2,64.8,30.01,SSW,210,0.0,0.0,75,0.00,,,0.00,VWS V13.01,2013-05-24 00:19:00,
2013-05-23 19:24:00,72.8,65.2,30.01,SSW,210,0.0,0.0,77,0.00,,,0.00,VWS V13.01,2013-05-24 00:24:00,
2013-05-23 19:29:00,72.7,64.7,29.98,SSW,210,0.0,0.0,76,0.00,,,0.00,VWS V13.01,2013-05-24 00:29:00,
2013-05-23 19:34:00,72.7,64.7,29.98,SSW,210,0.0,0.0,76,0.00,,,0.00,VWS V13.01,2013-05-24 00:34:00,
2013-05-23 19:39:00,72.5,64.9,29.98,SSW,210,0.0,0.0,77,0.00,,,0.00,VWS V13.01,2013-05-24 00:39:00,
2013-05-23 19:44:00,72.3,64.7,30.01,WSW,241,0.0,0.0,77,0.00,,,0.00,VWS V13.01,2013-05-24 00:44:00,
2013-05-23 19:49:00,71.9,64.3,30.01,WSW,241,0.0,0.0,77,0.00,,,0.00,VWS V13.01,2013-05-24 00:49:00,
2013-05-23 19:54:00,71.6,64.7,30.01,WSW,241,0.0,0.0,79,0.00,,,0.00,VWS V13.01,2013-05-24 00:54:00,
2013-05-23 19:59:00,71.2,65.1,30.01,WSW,241,0.0,0.0,81,0.00,,,0.00,VWS V13.01,2013-05-24 00:59:00,
2013-05-23 20:04:00,71.0,66.0,30.01,WSW,241,0.0,0.0,84,0.00,,,0.00,VWS V13.01,2013-05-24 01:04:00,
2013-05-23 20:09:00,70.9,66.1,30.01,NE,36,0.0,0.0,85,0.00,,,0.00,VWS V13.01,2013-05-24 01:09:00,
2013-05-23 20:14:00,70.5,66.4,30.01,West,269,3.1,3.1,87,0.00,,,0.00,VWS V13.01,2013-05-24 01:14:00,
2013-05-23 20:19:00,70.3,66.6,30.01,NNE,32,5.8,5.8,88,0.00,,,0.00,VWS V13.01,2013-05-24 01:19:00,
2013-05-23 20:24:00,70.1,66.4,30.01,North,2,2.7,4.9,88,0.00,,,0.00,VWS V13.01,2013-05-24 01:24:00,
2013-05-23 20:29:00,70.1,64.4,30.01,North,6,2.7,2.7,82,0.00,,,0.00,VWS V13.01,2013-05-24 01:29:00,
2013-05-23 20:34:00,70.5,64.4,30.01,NNW,337,0.0,2.2,81,0.00,,,0.00,VWS V13.01,2013-05-24 01:34:00,
2013-05-23 20:39:00,70.5,64.0,30.01,NNW,340,0.0,0.0,80,0.00,,,0.00,VWS V13.01,2013-05-24 01:39:00,
2013-05-23 20:44:00,70.7,63.9,30.04,NNE,21,0.0,0.0,79,0.00,,,0.00,VWS V13.01,2013-05-24 01:44:00,
2013-05-23 20:49:00,70.7,63.5,30.04,NNE,20,0.0,0.0,78,0.00,,,0.00,VWS V13.01,2013-05-24 01:49:00,
2013-05-23 20:54:00,70.7,63.5,30.04,NNE,20,0.0,0.0,78,0.00,,,0.00,VWS V13.01,2013-05-24 01:54:00,
2013-05-23 20:59:00,70.7,63.9,30.04,North,11,0.0,0.0,79,0.00,,,0.00,VWS V13.01,2013-05-24 01:59:00,
2013-05-23 21:04:00,70.7,64.6,30.04,North,11,0.0,0.0,81,0.00,,,0.00,VWS V13.01,2013-05-24 02:04:00,
2013-05-23 21:09:00,70.3,64.2,30.04,NNE,12,0.0,0.0,81,0.00,,,0.00,VWS V13.01,2013-05-24 02:09:00,
2013-05-23 21:14:00,70.3,64.2,30.04,North,11,0.0,0.0,81,0.00,,,0.00,VWS V13.01,2013-05-24 02:14:00,
2013-05-23 21:19:00,69.8,64.0,30.04,NNE,15,0.0,0.0,82,0.00,,,0.00,VWS V13.01,2013-05-24 02:19:00,
2013-05-23 21:24:00,69.2,64.5,30.04,NNE,33,3.1,3.1,85,0.00,,,0.00,VWS V13.01,2013-05-24 02:24:00,
2013-05-23 21:29:00,68.7,65.0,30.01,NE,35,0.0,3.1,88,0.00,,,0.00,VWS V13.01,2013-05-24 02:29:00,
2013-05-23 21:33:00,68.3,64.3,30.01,NE,35,0.0,0.0,87,0.00,,,0.00,VWS V13.01,2013-05-24 02:33:00,
2013-05-23 21:38:00,68.2,63.8,30.01,NNE,30,0.0,0.0,86,0.00,,,0.00,VWS V13.01,2013-05-24 02:38:00,
2013-05-23 21:43:00,67.8,62.5,30.04,NE,56,0.0,0.0,83,0.00,,,0.00,VWS V13.01,2013-05-24 02:43:00,
2013-05-23 21:48:00,68.0,62.6,30.04,NE,56,0.0,0.0,83,0.00,,,0.00,VWS V13.01,2013-05-24 02:48:00,
2013-05-23 21:53:00,68.0,63.0,30.04,NE,56,0.0,0.0,84,0.00,,,0.00,VWS V13.01,2013-05-24 02:53:00,
2013-05-23 21:58:00,67.8,62.8,30.04,NE,56,0.0,0.0,84,0.00,,,0.00,VWS V13.01,2013-05-24 02:58:00,
2013-05-23 22:03:00,67.6,62.6,30.04,ENE,74,0.0,0.0,84,0.00,,,0.00,VWS V13.01,2013-05-24 03:03:00,
2013-05-23 22:08:00,67.3,61.9,30.04,ENE,74,0.0,0.0,83,0.00,,,0.00,VWS V13.01,2013-05-24 03:08:00,
2013-05-23 22:13:00,66.9,61.6,30.04,ENE,74,0.0,0.0,83,0.00,,,0.00,VWS V13.01,2013-05-24 03:13:00,
2013-05-23 22:18:00,66.7,61.4,30.04,ENE,74,0.0,0.0,83,0.00,,,0.00,VWS V13.01,2013-05-24 03:18:00,
2013-05-23 22:23:00,66.7,61.4,30.04,ENE,74,0.0,0.0,83,0.00,,,0.00,VWS V13.01,2013-05-24 03:23:00,
2013-05-23 22:28:00,66.5,60.5,30.07,ENE,74,0.0,0.0,81,0.00,,,0.00,VWS V13.01,2013-05-24 03:28:00,
2013-05-23 22:33:00,66.7,61.1,30.07,ENE,63,0.0,0.0,82,0.00,,,0.00,VWS V13.01,2013-05-24 03:33:00,
2013-05-23 22:38:00,66.7,60.7,30.07,ENE,63,0.0,0.0,81,0.00,,,0.00,VWS V13.01,2013-05-24 03:38:00,
2013-05-23 22:43:00,66.4,60.7,30.07,ENE,63,0.0,0.0,82,0.00,,,0.00,VWS V13.01,2013-05-24 03:43:00,
2013-05-23 22:48:00,66.0,60.0,30.07,ENE,63,0.0,0.0,81,0.00,,,0.00,VWS V13.01,2013-05-24 03:48:00,
2013-05-23 22:53:00,65.8,60.2,30.07,ENE,63,0.0,0.0,82,0.00,,,0.00,VWS V13.01,2013-05-24 03:53:00,
2013-05-23 22:58:00,65.6,60.0,30.07,SSE,147,0.0,0.0,82,0.00,,,0.00,VWS V13.01,2013-05-24 03:58:00,
2013-05-23 23:01:00,65.5,60.2,30.07,SSE,147,0.0,0.0,83,0.00,,,0.00,VWS V13.01,2013-05-24 04:01:00,
2013-05-23 23:06:00,65.3,60.3,30.07,SSE,161,0.0,0.0,84,0.00,,,0.00,VWS V13.01,2013-05-24 04:06:00,
2013-05-23 23:11:00,65.5,60.5,30.07,SSE,152,0.0,0.0,84,0.00,,,0.00,VWS V13.01,2013-05-24 04:11:00,
2013-05-23 23:16:00,65.5,60.5,30.07,SSE,152,0.0,0.0,84,0.00,,,0.00,VWS V13.01,2013-05-24 04:16:00,
2013-05-23 23:21:00,65.5,60.5,30.07,SSE,152,0.0,0.0,84,0.00,,,0.00,VWS V13.01,2013-05-24 04:21:00,
2013-05-23 23:26:00,65.5,60.8,30.07,SSE,152,0.0,0.0,85,0.00,,,0.00,VWS V13.01,2013-05-24 04:26:00,
2013-05-23 23:31:00,65.5,60.5,30.07,SE,135,0.0,0.0,84,0.00,,,0.00,VWS V13.01,2013-05-24 04:31:00,
2013-05-23 23:36:00,65.6,60.3,30.07,SE,135,0.0,0.0,83,0.00,,,0.00,VWS V13.01,2013-05-24 04:36:00,
2013-05-23 23:41:00,65.6,60.0,30.07,SE,135,0.0,0.0,82,0.00,,,0.00,VWS V13.01,2013-05-24 04:41:00,
2013-05-23 23:46:00,65.3,59.3,30.07,SE,135,0.0,0.0,81,0.00,,,0.00,VWS V13.01,2013-05-24 04:46:00,
2013-05-23 23:51:00,65.3,58.6,30.07,SE,135,0.0,0.0,79,0.00,,,0.00,VWS V13.01,2013-05-24 04:51:00,
2013-05-23 23:56:00,65.3,58.6,30.07,SE,135,0.0,0.0,79,0.00,,,0.00,VWS V13.01,2013-05-24 04:56:00,